Overview Statistics Trail Chart Weather Telemetry Raw packets
 

This is the latest recevied weather packets stored in our database for station/object HG8GL-6. If no packets are shown the sender has not sent any weather packets the latest 10 day(s).

<< 45 46 47 48 49 50 51 >>
Time Temp. Humidity Pressure Rain* Wind** Luminosity Snow
1787908111 28.89° C 33% 1018 hPa 0 mm - - -
1787907481 28.33° C 36% 1018 hPa 0 mm - - -
1787906881 27.22° C 36% 1019 hPa 0 mm - - -
1787906281 27.22° C 37% 1019 hPa 0 mm - - -
1787905652 27.22° C 39% 1019 hPa 0 mm - - -
1787905051 27.22° C 41% 1019 hPa 0 mm - - -
1787904421 26.67° C 43% 1019 hPa 0 mm - - -
1787903821 25.56° C 46% 1019 hPa 0 mm - - -
1787903190 24.44° C 48% 1019 hPa 0 mm - - -
1787902590 24.44° C 50% 1018 hPa 0 mm - - -
1787901960 23.89° C 55% 1018 hPa 0 mm - - -
1787901330 22.78° C 60% 1019 hPa 0 mm - - -
1787900730 21.67° C 62% 1018 hPa 0 mm - - -
1787900130 21.11° C 62% 1018 hPa 0 mm - - -
1787899500 21.11° C 63% 1019 hPa 0 mm - - -
1787898900 21.11° C 65% 1019 hPa 0 mm - - -
1787898270 20.56° C 67% 1019 hPa 0 mm - - -
1787897640 20° C 69% 1019 hPa 0 mm - - -
1787897040 19.44° C 70% 1019 hPa 0 mm - - -
1787896440 18.89° C 71% 1019 hPa 0 mm - - -
1787895840 18.89° C 72% 1019 hPa 0 mm - - -
1787895210 18.33° C 72% 1018 hPa 0 mm - - -
1787894610 17.78° C 73% 1018 hPa 0 mm - - -
1787894010 17.78° C 73% 1018 hPa 0 mm - - -
1787893380 17.22° C 72% 1018 hPa 0 mm - - -

* Rain latest hour (hover to see other rain measurements)
** Current wind speed in m/s (hover to see current wind gust speed)